Location: Windsor
(43.2292°N, 89.3015°W)
Time: 13:11:42
(UTC+00:00)

RS-44 - Pass Details

Date: 30 June 2022
Orbit: 1175 x 1510 km, 82.5° (Epoch: 12 August)

Event Time Altitude Azimuth Distance (km) Brightness Sun altitude
Rises 04:08:38 0° 230° (SW) 4,336 ? -18.8°
Reaches altitude 10° 04:11:59 10° 243° (WSW) 3,421 ? -19.0°
Maximum altitude 04:18:31 26° 296° (WNW) 2,526 ? -19.5°
Drops below altitude 10° 04:25:25 10° 350° (N) 3,615 ? -20.1°
Sets 04:29:07 0° 3° (N) 4,630 ? -20.3°
